Change the Weather History Date:

Friday, October 28, 2011

  Actual Average Record
Temperature  
Mean Temperature 47 °F -  
Max Temperature 61 °F 68 °F 78 °F (2001)
Min Temperature 33 °F 41 °F 32 °F (1997)
Degree Days  
Heating Degree Days 18    
Moisture  
Dew Point 37 °F    
Average Humidity 69    
Maximum Humidity 93    
Minimum Humidity 42    
Precipitation  
Precipitation 0.00 in - - ()
Sea Level Pressure  
Sea Level Pressure 30.18 in    
Wind  
Wind Speed 5 mph (SSW)    
Max Wind Speed 10 mph    
Max Gust Speed -    
Visibility 10 miles    
Events      
Averages and records for this station are not official NWS values.
T = Trace of Precipitation, MM = Missing Value Source: NWS Daily Summary

Daily Weather History Graph

Daily Weather History Graph

Search for Another Location

Airport or City:

Trip Planner

Search our weather history database for the weather conditions in past years. The results will help you decide how hot, cold, wet, or windy it might be!

Date:

Astronomy

Oct. 28, 2011 Rise Set
Actual Time 7:18 AM MDT 6:17 PM MDT
Civil Twilight 6:53 AM MDT 6:42 PM MDT
Nautical Twilight 6:24 AM MDT 7:11 PM MDT
Astronomical Twilight 5:55 AM MDT 7:40 PM MDT
Moon 9:28 AM MDT (10/28) 7:52 PM MDT (10/28)
Length of Visible Light 11h 49m
Length of Day
10h 58m
Waxing Crescent, 5% of the Moon is Illuminated
Oct 28
Waxing Crescent
Nov 2
First Quarter
Nov 10
Full
Nov 18
Last Quarter
Nov 24
New

Hourly Weather History & Observations

Time (MDT) Temp. Windchill Dew Point Humidity Pressure Visibility Wind Dir Wind Speed Gust Speed Precip Events Conditions
12:55 AM 41.5 °F 37.8 °F 35.6 °F 79% 30.13 in 10.0 mi SSE 5.8 mph - N/A   Clear
1:55 AM 41.0 °F 34.7 °F 35.6 °F 81% 30.13 in 10.0 mi South 10.4 mph - N/A   Clear
2:55 AM 40.1 °F 35.3 °F 35.4 °F 83% 30.13 in 10.0 mi South 6.9 mph - N/A   Clear
3:55 AM 37.9 °F 34.4 °F 34.0 °F 86% 30.14 in 10.0 mi NE 4.6 mph - N/A   Clear
4:55 AM 34.9 °F 32.0 °F 32.5 °F 91% 30.15 in 10.0 mi NNW 3.5 mph - N/A   Clear
5:55 AM 33.4 °F 28.1 °F 31.5 °F 92% 30.17 in 10.0 mi NW 5.8 mph - N/A   Clear
6:55 AM 34.0 °F 28.8 °F 32.2 °F 93% 30.20 in 10.0 mi North 5.8 mph - N/A   Clear
7:55 AM 34.3 °F 29.2 °F 32.5 °F 93% 30.23 in 10.0 mi North 5.8 mph - N/A   Clear
8:55 AM 40.5 °F - 37.2 °F 88% 30.25 in 10.0 mi Calm Calm - N/A   Clear
9:55 AM 44.1 °F - 37.2 °F 77% 30.26 in 10.0 mi Calm Calm - N/A   Clear
10:55 AM 47.8 °F - 38.3 °F 70% 30.24 in 10.0 mi WNW 3.5 mph - N/A   Clear
11:55 AM 51.6 °F - 39.4 °F 63% 30.23 in 10.0 mi Calm Calm - N/A   Clear
12:55 PM 55.9 °F - 39.7 °F 55% 30.20 in 10.0 mi Calm Calm - N/A   Clear
1:55 PM 56.8 °F - 41.4 °F 56% 30.18 in 10.0 mi Calm Calm - N/A   Clear
2:55 PM 58.5 °F - 40.1 °F 51% 30.15 in 10.0 mi Calm Calm - N/A   Clear
3:55 PM 60.6 °F - 39.7 °F 46% 30.14 in 10.0 mi Variable 5.8 mph - N/A   Clear
4:55 PM 61.3 °F - 38.1 °F 42% 30.16 in 10.0 mi SSW 4.6 mph - N/A   Clear
5:55 PM 60.4 °F - 36.9 °F 42% 30.17 in 10.0 mi SSE 4.6 mph - N/A   Clear
6:55 PM 56.8 °F - 37.2 °F 48% 30.18 in 10.0 mi South 3.5 mph - N/A   Clear
7:55 PM 54.3 °F - 38.5 °F 55% 30.19 in 10.0 mi South 4.6 mph - N/A   Clear
8:55 PM 51.6 °F - 38.5 °F 61% 30.19 in 10.0 mi South 8.1 mph - N/A   Clear
9:55 PM 49.5 °F - 38.5 °F 66% 30.21 in 10.0 mi SSE 4.6 mph - N/A   Clear
10:55 PM 47.1 °F - 37.6 °F 69% 30.20 in 10.0 mi South 4.6 mph - N/A   Clear
11:55 PM 45.5 °F 42.5 °F 37.0 °F 72% 30.19 in 10.0 mi SSW 5.8 mph - N/A   Clear